Weather History for West Palm Beach, FL

Change the Weather History Date:

Friday, April 11, 2014

  Actual Average Record
Temperature  
Mean Temperature 72 °F 73 °F  
Max Temperature 79 °F 81 °F 95 °F (1953)
Min Temperature 64 °F 65 °F 48 °F (1973)
Degree Days  
Heating Degree Days 0 0  
Month to date heating degree days 0 0  
Since 1 July heating degree days 122 229  
Cooling Degree Days 7 8  
Month to date cooling degree days 98 85  
Year to date cooling degree days 646 513  
Growing Degree Days 22 (Base 50)    
Moisture  
Dew Point 63 °F    
Average Humidity 70    
Maximum Humidity 79    
Minimum Humidity 60    
Precipitation  
Precipitation 0.32 in 0.13 in 1.41 in (1958)
Month to date precipitation 0.38 1.48  
Year to date precipitation 14.26 12.02  
Snow  
Snow 0.00 in - - ()
Month to date snowfall 0.0  
Since 1 July snowfall 0.0  
Snow Depth 0.00 in    
Sea Level Pressure  
Sea Level Pressure 30.17 in    
Wind  
Wind Speed 9 mph (East)    
Max Wind Speed 21 mph    
Max Gust Speed 24 mph    
Visibility 9 miles    
Events Rain    
T = Trace of Precipitation, MM = Missing Value Source: NWS Daily Summary

Daily Weather History Graph

Daily Weather History Graph

Search for Another Location

Airport:

Trip Planner

Search our weather history database for the weather conditions in past years. The results will help you decide how hot, cold, wet, or windy it might be!

Date:

Astronomy

Apr. 11, 2014 Rise Set
Actual Time 7:00 AM EDT 7:42 PM EDT
Civil Twilight 6:37 AM EDT 8:06 PM EDT
Nautical Twilight 6:09 AM EDT 8:33 PM EDT
Astronomical Twilight 5:41 AM EDT 9:02 PM EDT
Moon 4:38 PM EDT (4/11) 4:35 AM EDT (4/11)
Length of Visible Light 13h 28m
Length of Day
12h 41m
Waxing Gibbous, 87% of the Moon is Illuminated
Apr 11
Waxing Gibbous
Apr 15
Full
Apr 22
Last Quarter
Apr 29
New
May 6
First Quarter

Hourly Weather History & Observations

Time (EDT) Temp. Dew Point Humidity Pressure Visibility Wind Dir Wind Speed Gust Speed Precip Events Conditions
12:53 AM 72.0 °F 57.0 °F 59% 30.23 in 10.0 mi East 10.4 mph - N/A   Partly Cloudy
1:53 AM 72.0 °F 57.0 °F 59% 30.20 in 10.0 mi East 4.6 mph - N/A   Partly Cloudy
2:53 AM 71.1 °F 59.0 °F 66% 30.18 in 10.0 mi East 5.8 mph - N/A   Partly Cloudy
3:53 AM 71.1 °F 60.1 °F 68% 30.17 in 10.0 mi East 4.6 mph - N/A   Scattered Clouds
4:53 AM 69.1 °F 61.0 °F 75% 30.16 in 10.0 mi East 9.2 mph - N/A   Scattered Clouds
5:53 AM 72.0 °F 62.1 °F 71% 30.17 in 10.0 mi ESE 11.5 mph - N/A   Mostly Cloudy
6:53 AM 72.0 °F 62.1 °F 71% 30.18 in 10.0 mi East 10.4 mph - N/A   Mostly Cloudy
7:53 AM 73.9 °F 62.1 °F 66% 30.19 in 10.0 mi East 10.4 mph - N/A   Mostly Cloudy
8:53 AM 75.0 °F 62.1 °F 64% 30.20 in 10.0 mi East 11.5 mph - N/A   Mostly Cloudy
9:53 AM 77.0 °F 63.0 °F 62% 30.22 in 10.0 mi East 15.0 mph - N/A   Mostly Cloudy
10:53 AM 79.0 °F 64.0 °F 60% 30.23 in 10.0 mi East 18.4 mph - N/A   Mostly Cloudy
11:53 AM 77.0 °F 63.0 °F 62% 30.22 in 10.0 mi East 15.0 mph - N/A   Mostly Cloudy
12:53 PM 75.0 °F 64.9 °F 71% 30.20 in 10.0 mi ENE 10.4 mph - N/A   Mostly Cloudy
1:42 PM 72.0 °F 66.9 °F 84% 30.19 in 7.0 mi South 8.1 mph 21.9 mph 0.06 in Rain Light Rain
1:53 PM 71.1 °F 66.9 °F 87% 30.19 in 4.0 mi Calm Calm - 0.08 in Rain Rain
2:09 PM 71.1 °F 66.0 °F 84% 30.18 in 1.0 mi East 11.5 mph - 0.07 in Rain Heavy Rain
2:21 PM 71.1 °F 66.9 °F 87% 30.17 in 3.0 mi East 11.5 mph - 0.13 in Rain Heavy Rain
2:53 PM 73.0 °F 66.9 °F 81% 30.17 in 7.0 mi SE 15.0 mph - 0.17 in Rain Light Rain
3:53 PM 73.0 °F 66.0 °F 79% 30.15 in 8.0 mi East 16.1 mph - 0.00 in Rain Light Rain
4:05 PM 72.0 °F 66.0 °F 81% 30.15 in 2.0 mi ESE 16.1 mph - 0.00 in Rain Light Rain
4:45 PM 71.1 °F 64.9 °F 81% 30.14 in 7.0 mi South 3.5 mph - 0.05 in Rain Light Rain
4:53 PM 71.1 °F 64.9 °F 81% 30.14 in 10.0 mi Calm Calm - 0.06 in Rain Light Rain
5:53 PM 72.0 °F 66.9 °F 84% 30.14 in 10.0 mi North 3.5 mph - 0.01 in   Overcast
6:53 PM 75.0 °F 64.0 °F 69% 30.13 in 10.0 mi East 8.1 mph - N/A   Mostly Cloudy
7:53 PM 73.9 °F 66.0 °F 76% 30.14 in 10.0 mi East 4.6 mph - N/A   Mostly Cloudy
8:53 PM 73.9 °F 63.0 °F 68% 30.15 in 10.0 mi East 9.2 mph - N/A   Mostly Cloudy
9:53 PM 73.9 °F 61.0 °F 64% 30.16 in 10.0 mi ESE 12.7 mph - N/A   Mostly Cloudy
10:53 PM 73.9 °F 60.1 °F 62% 30.15 in 10.0 mi ESE 9.2 mph - N/A   Scattered Clouds
11:53 PM 73.9 °F 62.1 °F 66% 30.15 in 10.0 mi East 10.4 mph - N/A   Overcast